This is the latest recevied weather packets stored in our database for station/object G4KVI. If no packets are shown the sender has not sent any weather packets the latest 10 day(s).
| Time | Temp. | Humidity | Pressure | Rain* | Wind** | Luminosity | Snow |
|---|---|---|---|---|---|---|---|
| 1787911204 | 21.67° C | 63% | 1008.6 hPa | 0 mm | - | 169 W/m² | - |
| 1787910904 | 21.11° C | 64% | 1008.5 hPa | 0 mm | - | 719 W/m² | - |
| 1787910604 | 21.11° C | 66% | 1008.4 hPa | 0 mm | - | 684 W/m² | - |
| 1787910304 | 20.56° C | 67% | 1008.4 hPa | 0 mm | - | 396 W/m² | - |
| 1787910004 | 21.11° C | 67% | 1008.6 hPa | 0 mm | - | 490 W/m² | - |
| 1787909704 | 21.11° C | 67% | 1008.4 hPa | 0 mm | - | 429 W/m² | - |
| 1787909404 | 20.56° C | 68% | 1008.4 hPa | 0 mm | - | 589 W/m² | - |
| 1787909104 | 20.56° C | 69% | 1008.2 hPa | 0 mm | - | 566 W/m² | - |
| 1787908804 | 20.56° C | 69% | 1008.6 hPa | 0 mm | - | 263 W/m² | - |
| 1787908504 | 21.11° C | 67% | 1008.5 hPa | 0 mm | - | 565 W/m² | - |
| 1787908204 | 20.56° C | 70% | 1008.3 hPa | 0 mm | - | 538 W/m² | - |
| 1787907904 | 20.56° C | 70% | 1008.5 hPa | 0 mm | - | 469 W/m² | - |
| 1787907604 | 20.56° C | 69% | 1008.4 hPa | 0 mm | - | 450 W/m² | - |
| 1787907304 | 20.56° C | 71% | 1008.6 hPa | 0 mm | - | 430 W/m² | - |
| 1787907012 | 20° C | 72% | 1008.7 hPa | 0 mm | - | 422 W/m² | - |
| 1787906704 | 20° C | 71% | 1008.7 hPa | 0 mm | - | 384 W/m² | - |
| 1787906404 | 20° C | 73% | 1008.5 hPa | 0 mm | - | 407 W/m² | - |
| 1787906104 | 20° C | 73% | 1008.6 hPa | 0 mm | - | 386 W/m² | - |
| 1787905804 | 19.44° C | 74% | 1008.8 hPa | 0 mm | - | 376 W/m² | - |
| 1787905504 | 19.44° C | 75% | 1008.7 hPa | 0 mm | - | 365 W/m² | - |
| 1787905204 | 19.44° C | 75% | 1008.7 hPa | 0 mm | - | 337 W/m² | - |
| 1787904904 | 18.89° C | 76% | 1008.8 hPa | 0 mm | - | 352 W/m² | - |
| 1787904604 | 18.89° C | 75% | 1008.6 hPa | 0 mm | - | 340 W/m² | - |
| 1787904304 | 18.89° C | 77% | 1008.8 hPa | 0 mm | - | 325 W/m² | - |
| 1787904003 | 18.89° C | 77% | 1008.9 hPa | 0 mm | - | 293 W/m² | - |
* Rain latest hour (hover to see other rain measurements)
** Current wind speed in m/s (hover to see current wind gust speed)